Location: Chacón
(10.5789°N, 66.9317°W)
Time: 06:29:49
(UTC+00:00)

Sakura Rocket - Pass Details

Date: 13 August 2024
Orbit: 475 x 1710 km, 28.7° (Epoch: 16 September)

Event Time Altitude Azimuth Distance (km) Brightness Sun altitude
Rises 23:00:29 0° 223° (SW) 3,150 7.1 -4.1°
Reaches altitude 10° 23:03:28 10° 212° (SSW) 2,039 5.9 -4.8°
Maximum altitude 23:07:23 28° 153° (SSE) 1,062 3.9 -5.7°
Drops below altitude 10° 23:10:42 10° 92° (E) 1,700 4.7 -6.5°
Enters shadow 23:11:19 - 88° (E) 1,919 5.0 -6.6°
